[[{"header":{"parameterUnit":"m.s-1","parameterCategory":1,"la1":30.2991,"la2":30.254,"lo1":-89.0895,"lo2":-89.0444,"dy":0.0017,"dx":0.0017,"nx":28,"ny":28,"refTime":"2026-01-04T09:00:00:Z","depth":0,"parameterNumber":2,"parameterNumberName":"U-component_of_WINDS"},"data":[0,0,0,0,0,0,0,0,0,0,0,0,0,0,0,0,0,0,0,0,0,0,0,0,0,0,0,0,0,0,0,0,0,0,0,0,0,0,0,0,0,0,0,0,0,0,0,0,0,0,0,0,0,0,0,0,0,0,-0.6754,-0.6754,0,-0.6764,-0.6764,-0.6764,-0.6708,-0.6707,-0.6705,-0.6704,-0.6715,-0.6717,-0.6719,0,0,0,0,0,0,0,0,0,0,0,0,0,-0.669,-0.6691,-0.6754,-0.6754,-0.6755,-0.6764,-0.6764,-0.6764,-0.6708,-0.6707,-0.6705,-0.6703,-0.6715,-0.6717,-0.6719,0,0,0,0,0,0,0,0,0,0,0,0,0,-0.671,-0.6692,-0.6754,-0.6728,-0.6726,-0.6764,-0.6764,-0.6764,-0.6709,-0.6706,-0.6704,-0.6702,-0.6714,-0.6717,-0.6719,-0.6784,0,0,-0.6727,-0.6729,0,0,0,0,0,0,0,0,-0.6709,-0.6713,-0.6732,-0.673,-0.6727,-0.6732,-0.6745,-0.6771,-0.6709,-0.6715,-0.6703,-0.6701,-0.6723,-0.6725,-0.6732,-0.6784,-0.6785,-0.6728,-0.6729,-0.673,-0.6731,0,0,0,0,0,0,0,-0.6708,-0.6712,-0.6758,-0.6732,-0.6729,-0.6716,-0.6716,-0.675,-0.6733,-0.6715,-0.6711,-0.6712,-0.6721,-0.6729,-0.6732,-0.6785,-0.6728,-0.673,-0.6732,-0.6733,-0.6889,-0.6892,0,0,0,0,0,0,-0.671,-0.6711,-0.6758,-0.6758,-0.6712,-0.6719,-0.6719,-0.6733,-0.6732,-0.6729,-0.6714,-0.671,-0.6726,-0.6729,-0.6732,-0.6807,-0.673,-0.6733,-0.6735,-0.6887,-0.689,-0.6893,0,0,0,0,0,0,-0.6709,-0.6714,-0.6757,-0.6734,-0.6738,-0.6723,-0.6739,-0.6735,-0.6743,-0.6732,-0.6729,-0.6726,-0.6724,-0.6728,-0.6771,-0.6807,-0.6734,-0.6737,-0.6884,-0.6888,-0.6891,-0.6958,0,0,0,0,0,0,-0.6707,-0.6714,-0.6739,-0.6735,-0.674,-0.6796,-0.6741,-0.6736,-0.6747,-0.6741,-0.6742,-0.6739,-0.6723,-0.6767,-0.6774,-0.6809,-0.6739,-0.6881,-0.6886,-0.689,-0.6953,-0.6964,-0.6973,0,0,0,0,0,-0.6705,-0.6758,-0.674,-0.6746,-0.6769,-0.6798,-0.6801,-0.678,-0.675,-0.6775,-0.6767,-0.6739,-0.6801,-0.6772,-0.6779,-0.6816,-0.6878,-0.6884,-0.689,-0.6948,-0.6962,-0.6973,0,0,0,0,0,0,-0.6767,-0.6757,-0.6737,-0.679,-0.6795,-0.6789,-0.6819,-0.6795,-0.681,-0.6804,-0.6778,-0.6778,-0.6826,-0.6824,-0.6792,-0.6877,-0.6835,-0.6842,-0.6877,-0.6889,-0.6899,-0.6899,-0.6741,0,0,0,0,0,-0.6787,-0.6811,-0.68,-0.6848,-0.6852,-0.6835,-0.6847,-0.683,-0.6835,-0.6837,-0.6833,-0.6839,-0.686,-0.6874,-0.6893,-0.6951,-0.6951,-0.698,-0.699,-0.6999,-0.7006,-0.7037,-0.705,-0.6912,-0.6912,-0.6912,0,0,-0.6829,-0.6826,-0.6843,-0.6861,-0.6863,-0.6888,-0.6837,-0.6867,-0.6886,-0.6842,-0.6882,-0.6879,-0.6884,-0.6935,-0.6957,-0.6936,-0.7044,-0.7006,-0.7013,-0.7016,-0.7044,-0.7057,-0.7069,-0.6916,-0.6915,-0.6914,0,0,-0.6918,-0.6918,-0.6957,-0.696,-0.6963,-0.6951,-0.6961,-0.6958,-0.6954,-0.6993,-0.696,-0.6982,-0.7019,-0.7024,-0.7031,-0.712,-0.7095,-0.7126,-0.7181,-0.7211,-0.7222,-0.7232,-0.7264,-0.7276,-0.7133,-0.7133,-0.7133,0,-0.6969,-0.7006,-0.6981,-0.7012,-0.7021,-0.6981,-0.7021,-0.7025,-0.7035,-0.7042,-0.7017,-0.7061,-0.7062,-0.7113,-0.7135,-0.7142,-0.7152,-0.7127,-0.7222,-0.7232,-0.724,-0.7271,-0.7283,-0.7137,-0.7137,-0.7136,-0.7136,0,-0.7069,-0.7095,-0.7127,-0.7136,-0.7148,-0.7184,-0.7164,-0.718,-0.7161,-0.7152,-0.7192,-0.7191,-0.7209,-0.7219,-0.7202,-0.7268,-0.7255,-0.7227,-0.7183,-0.7258,-0.7286,-0.7297,-0.7143,-0.7141,-0.714,-0.7139,0,0,-0.72,-0.7193,-0.7206,-0.7209,-0.7209,-0.7229,-0.7262,-0.7278,-0.7292,-0.7299,-0.7327,-0.7358,-0.7331,-0.734,-0.7322,-0.7349,-0.742,-0.7317,-0.7317,-0.7337,-0.7493,-0.7515,-0.7529,-0.7402,-0.7404,-0.7406,-0.7493,0,-0.7288,-0.7344,-0.7321,-0.738,-0.7404,-0.7365,-0.7394,-0.7397,-0.7389,-0.7408,-0.7399,-0.7422,-0.7385,-0.7389,-0.7413,-0.7406,-0.7451,-0.7399,-0.7429,-0.743,-0.743,-0.7543,-0.7567,-0.7649,-0.7503,-0.7505,-0.7506,0,-0.7398,-0.7409,-0.7469,-0.7464,-0.7473,-0.75,-0.7512,-0.753,-0.7533,-0.7525,-0.7534,-0.751,-0.7543,-0.7498,-0.7543,-0.7509,-0.7519,-0.7517,-0.7519,-0.7523,-0.7474,-0.7551,-0.7675,-0.7688,-0.7524,-0.7522,-0.7521,0,-0.7488,-0.7517,-0.7557,-0.7561,-0.7556,-0.7576,-0.7575,-0.7575,-0.7585,-0.7596,-0.7603,-0.7618,-0.7626,-0.7638,-0.7619,-0.7589,-0.7667,-0.7621,-0.7662,-0.7663,-0.7682,-0.7681,-0.7811,-0.7687,-0.7687,-0.7686,-0.7686,0,-0.7589,-0.7628,-0.7598,-0.7623,-0.7665,-0.7638,-0.7681,-0.7675,-0.7675,-0.7699,-0.7666,-0.7688,-0.7661,-0.7681,-0.7667,-0.7706,-0.771,-0.7705,-0.7701,-0.7709,-0.771,-0.7717,-0.7711,-0.769,-0.7689,-0.7688,-0.7688,0,-0.7697,-0.7679,-0.772,-0.7711,-0.7709,-0.7741,-0.7734,-0.7756,-0.7745,-0.7775,-0.778,-0.7763,-0.7785,-0.7766,-0.7788,-0.7778,-0.7831,-0.7818,-0.783,-0.7827,-0.7869,-0.7866,-0.8009,-0.8027,-0.789,-0.7891,-0.7893,0,-0.7764,-0.7793,-0.7786,-0.7799,-0.7799,-0.782,-0.7831,-0.7805,-0.7817,-0.7821,-0.7844,-0.7862,-0.7876,-0.7913,-0.7903,-0.7919,-0.7907,-0.7956,-0.7909,-0.7916,-0.7909,-0.7908,-0.7911,-0.7966,-0.7967,-0.7969,-0.797,0,-0.7883,-0.7872,-0.7888,-0.7901,-0.7914,-0.7923,-0.7929,-0.7941,-0.7915,-0.793,-0.7951,-0.7962,-0.7983,-0.8002,-0.8015,-0.8014,-0.7988,-0.7984,-0.7995,-0.8004,-0.801,-0.8008,-0.7857,-0.7981,-0.798,-0.7979,-0.7979,-0.7978,-0.7974,-0.7997,-0.7996,-0.8015,-0.8016,-0.8022,-0.8043,-0.8034,-0.8051,-0.8065,-0.8049,-0.8075,-0.8076,-0.809,-0.8092,-0.8112,-0.8092,-0.8107,-0.8111,-0.8116,-0.8122,-0.8005,-0.8114,-0.8114,-0.8114,-0.8113,-0.8113,0,-0.8092,-0.8089,-0.8106,-0.8115,-0.813,-0.8102,-0.8107,-0.8122,-0.8145,-0.8147,-0.8161,-0.8186,-0.8204,-0.8194,-0.821,-0.8228,-0.8217,-0.8233,-0.8232,-0.8233,-0.8139,-0.8129,-0.8242,-0.8242,-0.8242,-0.8242,-0.8242,-0.8242,-0.8156,-0.8195,-0.8183,-0.8222,-0.8218,-0.8243,-0.8248,-0.8254,-0.8256,-0.8284,-0.8299,-0.8292,-0.829,-0.8305,-0.832,-0.8317,-0.8325,-0.8346,-0.8339,-0.8252,-0.8239,-0.8227,-0.8217,-0.8348,-0.8348,-0.8431,-0.8431,-0.8432]},{"header":{"parameterUnit":"m.s-1","parameterCategory":1,"la1":30.2991,"la2":30.254,"lo1":-89.0895,"lo2":-89.0444,"dy":0.0017,"dx":0.0017,"nx":28,"ny":28,"refTime":"2026-01-04T09:00:00:Z","depth":0,"parameterNumber":3,"parameterNumberName":"V-component_of_WINDS"},"data":[0,0,0,0,0,0,0,0,0,0,0,0,0,0,0,0,0,0,0,0,0,0,0,0,0,0,0,0,0,0,0,0,0,0,0,0,0,0,0,0,0,0,0,0,0,0,0,0,0,0,0,0,0,0,0,0,0,0,-1.2048,-1.2049,0,-1.2112,-1.2112,-1.2113,-1.2079,-1.2078,-1.2076,-1.2074,-1.2139,-1.2143,-1.2146,0,0,0,0,0,0,0,0,0,0,0,0,0,-1.1896,-1.1899,-1.2048,-1.2049,-1.205,-1.2111,-1.2112,-1.2113,-1.208,-1.2078,-1.2075,-1.2073,-1.2138,-1.2142,-1.2146,0,0,0,0,0,0,0,0,0,0,0,0,0,-1.1961,-1.19,-1.2048,-1.204,-1.204,-1.2111,-1.2112,-1.2113,-1.208,-1.2077,-1.2075,-1.2073,-1.2137,-1.2142,-1.2147,-1.2229,0,0,-1.2162,-1.2164,0,0,0,0,0,0,0,0,-1.1958,-1.1967,-1.2041,-1.2041,-1.2041,-1.2085,-1.2083,-1.2152,-1.2081,-1.2065,-1.2074,-1.2071,-1.2123,-1.2129,-1.2147,-1.2232,-1.2235,-1.2163,-1.2166,-1.2168,-1.2169,0,0,0,0,0,0,0,-1.1953,-1.1964,-1.2073,-1.2042,-1.2042,-1.2033,-1.204,-1.2096,-1.2108,-1.2066,-1.2064,-1.2072,-1.2123,-1.2142,-1.2148,-1.2236,-1.2162,-1.2167,-1.217,-1.2172,-1.239,-1.2393,0,0,0,0,0,0,-1.1949,-1.196,-1.2071,-1.2075,-1.1992,-1.2038,-1.2045,-1.2073,-1.2107,-1.211,-1.2074,-1.207,-1.2135,-1.2142,-1.215,-1.2248,-1.2168,-1.2172,-1.2175,-1.2387,-1.2391,-1.2394,0,0,0,0,0,0,-1.1946,-1.1959,-1.2068,-1.2017,-1.203,-1.2043,-1.2075,-1.2076,-1.2095,-1.2113,-1.2115,-1.2091,-1.2133,-1.2143,-1.2209,-1.225,-1.2175,-1.2179,-1.2384,-1.2388,-1.2392,-1.2445,0,0,0,0,0,0,-1.1942,-1.1958,-1.199,-1.2018,-1.2033,-1.2127,-1.2078,-1.2079,-1.2104,-1.2099,-1.213,-1.2132,-1.2132,-1.2202,-1.2214,-1.2256,-1.2183,-1.238,-1.2386,-1.2391,-1.244,-1.245,-1.246,0,0,0,0,0,-1.1936,-1.2003,-1.1992,-1.2006,-1.2073,-1.213,-1.2138,-1.2136,-1.2107,-1.2139,-1.215,-1.2132,-1.2243,-1.2209,-1.2223,-1.2266,-1.2378,-1.2384,-1.239,-1.2435,-1.2448,-1.2459,0,0,0,0,0,0,-1.198,-1.2006,-1.1995,-1.2072,-1.2099,-1.2124,-1.2164,-1.215,-1.2186,-1.218,-1.2176,-1.2183,-1.2252,-1.2265,-1.2227,-1.2346,-1.2306,-1.2315,-1.2335,-1.2348,-1.2358,-1.2354,-1.2187,0,0,0,0,0,-1.1998,-1.2042,-1.2063,-1.2129,-1.2143,-1.2151,-1.2176,-1.2172,-1.2199,-1.221,-1.2226,-1.2254,-1.2294,-1.2322,-1.2361,-1.2441,-1.2447,-1.2477,-1.2487,-1.2495,-1.2504,-1.2546,-1.256,-1.2414,-1.2414,-1.2414,0,0,-1.2037,-1.2057,-1.2085,-1.2138,-1.2158,-1.2203,-1.2161,-1.2211,-1.2244,-1.2218,-1.2281,-1.2294,-1.2324,-1.2397,-1.243,-1.241,-1.2545,-1.2503,-1.251,-1.2514,-1.2554,-1.2568,-1.258,-1.2419,-1.2418,-1.2417,0,0,-1.2131,-1.2151,-1.2208,-1.2229,-1.2259,-1.2264,-1.2278,-1.2305,-1.2312,-1.2375,-1.2356,-1.2395,-1.2466,-1.2488,-1.2509,-1.2609,-1.2593,-1.2621,-1.2674,-1.2716,-1.2727,-1.2737,-1.2773,-1.2786,-1.2629,-1.263,-1.263,0,-1.2176,-1.2243,-1.2239,-1.229,-1.2313,-1.2291,-1.2348,-1.2369,-1.2411,-1.2427,-1.2404,-1.2492,-1.2511,-1.2588,-1.2613,-1.263,-1.2645,-1.2619,-1.2726,-1.2736,-1.2745,-1.2779,-1.2792,-1.2633,-1.2632,-1.2632,-1.2632,0,-1.2296,-1.2343,-1.2385,-1.2426,-1.2454,-1.2508,-1.2511,-1.254,-1.2533,-1.254,-1.2604,-1.2625,-1.2668,-1.2685,-1.2679,-1.2762,-1.2749,-1.2726,-1.2685,-1.2762,-1.2794,-1.2807,-1.2638,-1.2636,-1.2635,-1.2635,0,0,-1.2421,-1.2458,-1.2473,-1.2491,-1.2522,-1.2558,-1.261,-1.2652,-1.2676,-1.2705,-1.2749,-1.2808,-1.2787,-1.281,-1.2806,-1.2842,-1.292,-1.2815,-1.2815,-1.2834,-1.3012,-1.3029,-1.3044,-1.2909,-1.2911,-1.2913,-1.3009,0,-1.2518,-1.2609,-1.2606,-1.2691,-1.2734,-1.2712,-1.2758,-1.2781,-1.2789,-1.2826,-1.2833,-1.2876,-1.2844,-1.2858,-1.2893,-1.2903,-1.2955,-1.2896,-1.2949,-1.2951,-1.2943,-1.3061,-1.308,-1.317,-1.3021,-1.3023,-1.3025,0,-1.2643,-1.2675,-1.2765,-1.2789,-1.2807,-1.2848,-1.2884,-1.292,-1.2946,-1.2949,-1.2974,-1.2963,-1.3015,-1.2972,-1.3043,-1.3003,-1.3024,-1.3032,-1.3035,-1.3041,-1.2993,-1.307,-1.3198,-1.3212,-1.3045,-1.3043,-1.3042,0,-1.2725,-1.2791,-1.2853,-1.2869,-1.2899,-1.2928,-1.2941,-1.2965,-1.2989,-1.3021,-1.3037,-1.3074,-1.3095,-1.3124,-1.3123,-1.3092,-1.3195,-1.3152,-1.3199,-1.3199,-1.3222,-1.3221,-1.3356,-1.3235,-1.3235,-1.3235,-1.3234,0,-1.2833,-1.2889,-1.289,-1.2929,-1.299,-1.2985,-1.3046,-1.3056,-1.3077,-1.3116,-1.3099,-1.3137,-1.3133,-1.3171,-1.317,-1.3229,-1.3239,-1.3242,-1.3241,-1.3244,-1.3244,-1.3259,-1.3253,-1.3238,-1.3237,-1.3237,-1.3236,0,-1.2936,-1.2939,-1.3006,-1.3027,-1.3034,-1.3078,-1.3097,-1.3133,-1.3138,-1.3188,-1.3199,-1.3207,-1.325,-1.3252,-1.3302,-1.3301,-1.3373,-1.3365,-1.3364,-1.3363,-1.341,-1.3405,-1.356,-1.358,-1.3445,-1.3446,-1.3447,0,-1.3005,-1.3048,-1.3074,-1.3099,-1.3114,-1.3155,-1.3179,-1.3175,-1.3202,-1.3233,-1.3265,-1.3306,-1.3339,-1.3409,-1.3419,-1.3456,-1.3449,-1.3501,-1.3455,-1.3456,-1.3451,-1.3448,-1.3452,-1.351,-1.3512,-1.3513,-1.3514,0,-1.3128,-1.3127,-1.3164,-1.32,-1.323,-1.3259,-1.3285,-1.3306,-1.3305,-1.3335,-1.3379,-1.3404,-1.3454,-1.3495,-1.3531,-1.3544,-1.3529,-1.3528,-1.3541,-1.3544,-1.3542,-1.3544,-1.3389,-1.3525,-1.3524,-1.3523,-1.3522,-1.3522,-1.3217,-1.3253,-1.3277,-1.3317,-1.3336,-1.3361,-1.3396,-1.3405,-1.3441,-1.3481,-1.3476,-1.3525,-1.3548,-1.3595,-1.3611,-1.3648,-1.363,-1.3649,-1.3654,-1.3659,-1.3664,-1.3535,-1.3654,-1.3654,-1.3654,-1.3654,-1.3653,0,-1.3339,-1.3353,-1.339,-1.3427,-1.3459,-1.3441,-1.3469,-1.3496,-1.3539,-1.3562,-1.3594,-1.3644,-1.3683,-1.3695,-1.3733,-1.376,-1.3754,-1.3771,-1.3769,-1.3772,-1.3677,-1.3663,-1.3775,-1.3775,-1.3775,-1.3775,-1.3775,-1.3775,-1.3406,-1.3466,-1.3468,-1.3537,-1.355,-1.3597,-1.3615,-1.3637,-1.3655,-1.3712,-1.3744,-1.3751,-1.377,-1.3809,-1.3843,-1.3846,-1.3861,-1.388,-1.388,-1.3791,-1.3779,-1.3767,-1.3754,-1.3883,-1.3883,-1.3972,-1.3973,-1.3973]}]]